Regional Weather Roundup
Issued by NWS

Home | Current Version | Previous Version | Graphics & Text | Print | Product List | Glossary On
Versions: 1 2 3 4 5 6 7 8 9 10 11 12 13 14 15 16 17 18 19 20 21 22 23 24 25 26 27
000
ASUS45 KBOU 260607
RWRCO

WEATHER ROUNDUP FOR COLORADO
NATIONAL WEATHER SERVICE DENVER/BOULDER CO
1200 AM MDT FRI AUG 26 2016

NOTE: "FAIR" INDICATES FEW OR NO CLOUDS BELOW 12000 FEET WITH NO
SIGNIFICANT WEATHER AND/OR OBSTRUCTIONS TO VISIBILITY.

COZ001>005-013-030-031-260700-
...NORTHWEST COLORADO...

CITY           SKY/WX    TMP DP  RH WIND       PRES   REMARKS
CRAIG          FAIR      57  37  47 CALM      30.23S
HAYDEN         FAIR      54  37  54 SE14      30.25S
MEEKER         FAIR      52  40  63 NW3       30.27F
MOUNT WERNER   NOT AVBL
STEAMBOAT SPGS FAIR      52  40  64 E8        30.27S
WALDEN         FAIR      50  36  57 S15G23    30.33S
$$

COZ006>008-011-260700-
...WEST CENTRAL VALLEYS...

CITY           SKY/WX    TMP DP  RH WIND       PRES   REMARKS
GRAND JUNCTION FAIR      57  50  77 E10       30.21S
MONTROSE       CLOUDY    54  47  77 S18       30.31F
EAGLE          CLOUDY    50  46  87 CALM      30.36F
RIFLE          FAIR      53  49  86 CALM      30.27F
DELTA          NOT AVBL
NUCLA          NOT AVBL
$$

COZ017>023-064>068-260700-
...SOUTHWEST COLORADO...

CITY           SKY/WX    TMP DP  RH WIND       PRES   REMARKS
DURANGO        FAIR      55  52  89 W5        30.30S
CORTEZ         CLOUDY    55  52  89 N3        30.28F
PAGOSA SPRINGS NOT AVBL
TELLURIDE      NOT AVBL
WOLF CREEK PAS MOCLDY    36  36 100 S8        30.59S
$$

COZ009-010-012-014-032>034-037-058>063-260700-
...CENTRAL COLORADO...

CITY           SKY/WX    TMP DP  RH WIND       PRES   REMARKS
ASPEN          FAIR      44  42  93 SW3       30.37F
BUENA VISTA    NOT AVBL
COPPER MTN     MOCLDY    37  34  87 MISG      30.54F
BERTHOUD PASS  LGT SNOW  30  18  59 E5        30.56F VSB 1   WCI  25
COTTONWOOD PAS RAIN      46  41  81 CALM      30.47S
GUNNISON       CLOUDY    48  43  81 CALM      30.42S
KREMMLING      CLOUDY    50  39  66 SW3       30.36F
LEADVILLE      CLOUDY    37  36  96 CALM      30.46S
MONARCH PASS   FOG       36  34  93 W12       30.65F VSB<1/4
SALIDA         NOT AVBL
SUNLIGHT       CLOUDY    39  39 100 N10G17    30.50F
WILKERSON PASS LGT RAIN  37  36  93 SW3       30.55F
$$

COZ069>075-260700-
...SAN LUIS VALLEY/SANGRE DE CRISTO MOUNTAINS...

CITY           SKY/WX    TMP DP  RH WIND       PRES   REMARKS
ALAMOSA        MOCLDY    50  42  74 W8        30.34R
LA VETA PASS   FOG       41  39  93 NE12      30.47F VSB 1/2
SAGUACHE       FAIR      50  41  71 W14       30.36S
$$

COZ035-036-038>040-260700-
...NORTHERN COLORADO FRONT RANGE...

CITY           SKY/WX    TMP DP  RH WIND       PRES   REMARKS
DENVER INTL AP CLOUDY    52  49  89 SE8       30.23F
DMNS CITY PARK   N/A     57  48  72 SE9       30.23F
AURORA         MOCLDY    53  48  82 SE9       30.25F
FRONT RANGE AP NOT AVBL
ERIE MUNI ARPT FAIR      58  51  78 CALM      30.22S
BOULDER MUN AP CLOUDY    55  50  82 CALM      30.22S
CENTENNIAL     CLOUDY    55  46  71 E7        30.26S
BROOMFIELD     FAIR      55  50  82 E3        30.24S
FORT COLLINS   FAIR      54  52  94 S6        30.22S
LONGMONT       CLOUDY    59  53  80 CALM      30.24S
$$

COZ041-046-047-076>085-087-088-260700-
...PIKES PEAK/PALMER DIVIDE AND SOUTHERN FOOTHILLS...

CITY           SKY/WX    TMP DP  RH WIND       PRES   REMARKS
COLO. SPRINGS  MOCLDY    55  46  71 CALM      30.31F
A. F. ACADEMY  CLOUDY    48  46  93 N5        30.31S
SCHRIEVER AFB  NOT AVBL
ELLICOTT       NOT AVBL
FALCON         NOT AVBL
FORT CARSON    CLOUDY    56  47  71 SW7       30.27F
LIMON          MOCLDY    53  50  89 CALM      30.26S
MONUMENT HILL  CLOUDY    46  43  87 SW5       30.34S
TRINIDAD       CLOUDY    57  50  77 NW5       30.27F
$$

COZ042>045-048>051-090-091-260700-
...NORTHEAST COLORADO...

CITY           SKY/WX    TMP DP  RH WIND       PRES   REMARKS
GREELEY ARPT   FAIR      52  48  87 E6        30.21F
AKRON          CLOUDY    62  52  69 SE15G24   30.22S
BURLINGTON     FAIR      60  50  69 SE9       30.23S
WRAY           NOT AVBL
STERLING       MOCLDY    61  48  63 S5        30.19S
HOLYOKE        FAIR      59  50  72 SE6       30.21S
FORT MORGAN    NOT AVBL
$$

COZ086-089-092>099-260700-
...SOUTHEAST COLORADO...

CITY           SKY/WX    TMP DP  RH WIND       PRES   REMARKS
PUEBLO         FAIR      59  53  80 CALM      30.23F
LA JUNTA       FAIR      63  58  83 S9        30.18R
LAMAR          MOCLDY    62  58  86 S6        30.20S
SPRINGFIELD      N/A     59  58  96 W5        30.23F
$$




USA.gov is the U.S. government's official web portal to all federal, state and local government web resources and services.